Regional Weather Roundup
Issued by NWS

Home | Current Version | Previous Version | Graphics & Text | Print | Product List | Glossary On
Versions: 1 2 3 4 5 6 7 8 9 10 11 12 13 14 15 16 17 18 19 20 21 22 23 24 25 26 27 28 29 30 31 32 33 34 35 36 37 38 39 40 41 42 43 44 45 46 47 48 49 50
000
ASUS43 KLMK 180110
RWRKY
KENTUCKY REGIONAL WEATHER ROUNDUP
NATIONAL WEATHER SERVICE LOUISVILLE KY
800 PM EST WED DEC 17 2014

NOTE "FAIR" INDICATES FEW OR NO CLOUDS BELOW 12,000 FEET
WITH NO SIGNIFICANT WEATHER AND/OR OBSTRUCTIONS TO VISIBILITY.

KYZ001>023-026-027-061>063-070>075-180200-
WESTERN AND SOUTH CENTRAL KENTUCKY

CITY           SKY/WX    TMP DP  RH WIND       PRES   REMARKS
PADUCAH        PTCLDY    34  28  79 CALM      30.28S
HENDERSON      CLEAR     28  25  86 CALM      30.30S
OWENSBORO      CLOUDY    33  26  76 N7        30.31R WCI  27
HOPKINSVILLE   PTCLDY    35  27  71 N7        30.28S WCI  29
BOWLING GREEN  PTCLDY    35  25  66 NW5       30.28S WCI  31
GLASGOW        CLEAR     30  26  82 CALM      30.26S
$$

KYZ024-025-028>034-038-045-046-053-180200-
NORTH CENTRAL KENTUCKY

CITY           SKY/WX    TMP DP  RH WIND       PRES   REMARKS
LOUISVILLE/SDF CLOUDY    32  24  72 W8        30.28R WCI  25
LOUISVILLE/LOU CLOUDY    33  24  69 NW7       30.28R WCI  27
FORT KNOX      MOCLDY    28  24  84 NW5       30.26R WCI  23
$$

KYZ035>037-039>044-047>052-055>060-089>105-180200-
NORTHEAST KENTUCKY

CITY           SKY/WX    TMP DP  RH WIND       PRES   REMARKS
LEXINGTON      PTCLDY    30  24  78 NW7       30.23F WCI  23
COVINGTON      CLOUDY    29  20  69 NW10      30.24S WCI  20
FRANKFORT      CLOUDY    32  24  72 NW5       30.24S WCI  27
$$

KYZ054-064>069-076>088-106>120-180200-
SOUTHEAST KENTUCKY

CITY           SKY/WX    TMP DP  RH WIND       PRES   REMARKS
JACKSON        CLEAR     31  24  75 W3        30.21S
LONDON         CLEAR     32  25  75 CALM      30.22S
SOMERSET       PTCLDY    30  27  86 CALM      30.25S
MIDDLESBORO    CLEAR     35  30  82 CALM      30.23R
MONTICELLO     CLEAR     29  26  88 CALM      30.27S
$$




USA.gov is the U.S. government's official web portal to all federal, state and local government web resources and services.